West Paducah, KY

8:30 PM CST on December 10, 2016 (GMT -0600)
Barkley Regional

Weather History for KPAH - October, 2010

Change the Weather History Date:

Friday, October 15, 2010

  Actual Average Record
Temperature  
Mean Temperature 57 °F 59 °F  
Max Temperature 72 °F 71 °F 87 °F (1950)
Min Temperature 41 °F 47 °F 32 °F (1991)
Degree Days  
Heating Degree Days 8 7  
Month to date heating degree days 74 83  
Since 1 July heating degree days 88 122  
Cooling Degree Days 0 1  
Month to date cooling degree days 15 26  
Year to date cooling degree days 1995 1526  
Growing Degree Days 8 (Base 50)    
Moisture  
Dew Point 37 °F    
Average Humidity 53    
Maximum Humidity 82    
Minimum Humidity 24    
Precipitation  
Precipitation 0.00 in 0.13 in 2.41 in (1992)
Month to date precipitation 0.10 1.95  
Year to date precipitation 28.84 38.18  
Snow  
Snow 0.00 in 0.00 in 0.00 in (2002)
Month to date snowfall 0.0 0.0  
Since 1 July snowfall 0.0 0.0  
Since 1 September snowfall 0.0 0.0  
Snow Depth 0.00 in    
Sea Level Pressure  
Sea Level Pressure 30.04 in    
Wind  
Wind Speed 6 mph (NW)    
Max Wind Speed 18 mph    
Max Gust Speed 22 mph    
Visibility 10 miles    
Events      
T = Trace of Precipitation, MM = Missing Value Source: NWS Daily Summary

Daily Weather History Graph

Daily Weather History Graph

Search for Another Location

Airport or City:

Trip Planner

Search our weather history database for the weather conditions in past years. The results will help you decide how hot, cold, wet, or windy it might be!

Date:

Astronomy

Oct. 15, 2010 Rise Set
Actual Time 7:02 AM CDT 6:18 PM CDT
Civil Twilight 6:36 AM CDT 6:44 PM CDT
Nautical Twilight 6:06 AM CDT 7:14 PM CDT
Astronomical Twilight 5:36 AM CDT 7:44 PM CDT
Moon 2:31 PM CDT (10/15) 12:06 AM CDT (10/15)
Length of Visible Light 12h 07m
Length of Day
11h 15m
First Quarter, 58% of the Moon is Illuminated
Oct 15
First Quarter
Oct 22
Full
Oct 30
Last Quarter
Nov 5
New
Nov 13
First Quarter

Hourly Weather History & Observations

Time (CDT) Temp. Dew Point Humidity Pressure Visibility Wind Dir Wind Speed Gust Speed Precip Events Conditions
12:53 AM 54.0 °F 37.9 °F 55% 29.95 in 10.0 mi WSW 8.1 mph - N/A   Clear
1:53 AM 57.0 °F 37.9 °F 49% 29.94 in 10.0 mi WSW 10.4 mph - N/A   Clear
2:53 AM 55.9 °F 39.0 °F 53% 29.92 in 10.0 mi WSW 11.5 mph - N/A   Clear
3:53 AM 55.0 °F 39.0 °F 55% 29.93 in 10.0 mi WSW 10.4 mph - N/A   Clear
4:53 AM 52.0 °F 39.9 °F 63% 29.94 in 10.0 mi WSW 10.4 mph - N/A   Clear
5:53 AM 51.1 °F 39.9 °F 66% 29.96 in 10.0 mi West 6.9 mph - N/A   Clear
6:53 AM 48.0 °F 39.0 °F 71% 29.99 in 10.0 mi West 4.6 mph - N/A   Clear
7:53 AM 52.0 °F 41.0 °F 66% 30.02 in 10.0 mi NW 4.6 mph - N/A   Clear
8:53 AM 59.0 °F 42.1 °F 53% 30.05 in 10.0 mi NNW 6.9 mph - N/A   Clear
9:53 AM 62.1 °F 39.0 °F 43% 30.07 in 10.0 mi NNW 6.9 mph - N/A   Clear
10:53 AM 66.0 °F 37.0 °F 34% 30.08 in 10.0 mi North 9.2 mph - N/A   Clear
11:53 AM 68.0 °F 36.0 °F 31% 30.08 in 10.0 mi North 9.2 mph - N/A   Clear
12:53 PM 70.0 °F 34.0 °F 27% 30.06 in 10.0 mi NNW 8.1 mph - N/A   Clear
1:53 PM 71.1 °F 33.1 °F 25% 30.04 in 10.0 mi NNW 8.1 mph - N/A   Clear
2:53 PM 71.1 °F 32.0 °F 24% 30.04 in 10.0 mi North 5.8 mph 16.1 mph N/A   Clear
3:53 PM 71.1 °F 32.0 °F 24% 30.04 in 10.0 mi North 8.1 mph - N/A   Clear
4:53 PM 70.0 °F 32.0 °F 25% 30.05 in 10.0 mi North 11.5 mph - N/A   Clear
5:53 PM 66.0 °F 33.1 °F 29% 30.07 in 10.0 mi North 6.9 mph - N/A   Clear
6:53 PM 59.0 °F 33.1 °F 38% 30.09 in 10.0 mi North 5.8 mph - N/A   Clear
7:53 PM 52.0 °F 36.0 °F 54% 30.11 in 10.0 mi Calm Calm - N/A   Clear
8:53 PM 46.9 °F 39.0 °F 74% 30.12 in 10.0 mi Calm Calm - N/A   Clear
9:53 PM 46.0 °F 37.9 °F 73% 30.13 in 10.0 mi Calm Calm - N/A   Clear
10:53 PM 46.0 °F 39.0 °F 76% 30.14 in 10.0 mi Calm Calm - N/A   Clear
11:53 PM 43.0 °F 37.9 °F 82% 30.14 in 10.0 mi Calm Calm - N/A   Clear